Regional Weather Roundup
Issued by NWS Charleston, SC

Current Version | Previous Version | Graphics & Text | Print | Product List | Glossary On
Versions: 1 2 3 4 5 6 7 8 9 10 11 12 13 14 15 16 17 18 19 20 21 22 23 24 25 26 27 28 29 30 31 32 33 34 35 36 37 38 39 40 41 42 43 44 45 46 47 48 49 50
000 ASUS42 KCHS 042227 RWRCHS REGIONAL WEATHER ROUNDUP NATIONAL WEATHER SERVICE CHARLESTON SC 600 PM EDT FRI SEP 04 2015 NOTE: "FAIR" INDICATES FEW OR NO CLOUDS BELOW 12,000 FEET WITH NO SIGNIFICANT WEATHER AND/OR OBSTRUCTIONS TO VISIBILITY. NOT ALL STATIONS ARE QUALITY CONTROLLED BY THE NATIONAL WEATHER SERVICE. USE DATA WITH CAUTION...ESPECIALLY DEWPOINT OBSERVATIONS. SCZ027-030-031-034>040-042>050-042300- ...SOUTHEAST SOUTH CAROLINA... CITY SKY/WX TMP DP RH WIND PRES REMARKS N CHARLESTON CLOUDY 78 68 71 CALM 29.95S WATERFRONT PRK N/A 76 72 87 VRB2 29.92S MOUNT PLEASANT FAIR 81 79 94 CALM 29.96S JOHNS ISLAND FAIR 75 73 94 CALM 29.96R PINOPOLIS N/A 90 73 58 S5 29.88R HX 98 MONCKS CORNER FAIR 84 72 65 S3 29.96R SUMMERVILLE FAIR 81 72 74 CALM 29.97R BEAUFORT MCAS CLOUDY 81 72 74 CALM 29.97R THUNDER BEAUFORT ARPT LGT RAIN 79 77 94 NW3 29.96S HILTON HEAD IS PTSUNNY 81 70 69 W5 29.97R WALTERBORO MOCLDY 82 68 61 W3 29.96S ALLENDALE FAIR 84 70 61 CALM 29.95R ...SOUTHERN MIDLANDS AND PEE DEE... CITY SKY/WX TMP DP RH WIND PRES REMARKS GEORGETOWN NOT AVBL KINGSTREE NOT AVBL ORANGEBURG PTSUNNY 86 74 67 SW5 29.95R HX 94 BARNWELL FAIR 82 75 78 CALM 29.96R AIKEN FAIR 84 64 51 S8 30.00R MANNING FAIR 81 68 65 SW5 29.96R COLUMBIA PTSUNNY 94 65 38 NE5 29.93R HX 96 SUMTER PTSUNNY 92 66 43 E7 29.92R HX 94 FLORENCE MOSUNNY 85 71 63 SE3 29.94R HX 90 MYRTLE BEACH SUNNY 84 72 65 S7 29.98R N MYRTLE BEACH SUNNY 84 75 74 S8 29.96R HX 92 $$ GAZ063-065-086>088-099>101-113>116-118-119-134>141-150-042300- ...SOUTHEAST GEORGIA... CITY SKY/WX TMP DP RH WIND PRES REMARKS SAVANNAH ARPT CLOUDY 80 71 74 CALM 29.96R HUNTER AAF CLOUDY 80 76 88 E1 29.94R FORT STEWART PTSUNNY 85 74 69 CALM 29.92R HX 92 STATESBORO CLOUDY 79 73 81 CALM 29.95F SYLVANIA NOT AVBL CLAXTON NOT AVBL ...CSRA...CENTRAL AND FAR SOUTHEAST GEORGIA... CITY SKY/WX TMP DP RH WIND PRES REMARKS THOMSON SUNNY 92 72 51 NE3 29.99S HX 100 AUGUSTA-BUSH MOSUNNY 83 71 67 S9G21 29.94R AUGUSTA-DANIEL MOSUNNY 90 69 50 E10G18 29.96R HX 94 SWAINSBORO FAIR 77 73 88 CALM 29.95S VIDALIA PTSUNNY 84 72 65 NE3 29.95S EASTMAN FAIR 92 72 52 E5 29.96R HX 99 HAZLEHURST FAIR 88 72 58 SE6 29.94R THUNDER HX 94 ALMA MOSUNNY 92 71 50 N6 29.92R HX 98 WAYCROSS MOSUNNY 83 77 80 SE12G22 29.95R THUNDER HX 92 JESUP FAIR 79 75 89 E3 29.95R BAXLEY FAIR 90 66 45 E10 29.94R HX 92 BRUNSWICK CLOUDY 79 73 83 CALM 29.95R SAINT SIMONS PTSUNNY 84 76 76 E5 29.94R HX 93 $$ SCZ027-028-034-036>038-045-046-048>050-GAZ119-141-042300- ...LAKE AND SUPPLEMENTAL COASTAL OBSERVATIONS... STATION/POSITION TIME TEMP WIND PRES WAVE SWELL AIR SEA DIR/SP/G HT/PER HT/PER/DIR (UTC) (F) (DEG/KT/KT) (MB) (FT/S) (FT/S/D) UPR LAKE MARION NOT AVBL WINYAH BAY 2100 83 130/ 6 1013.0 LAKE MURRAY 2200 88 350/ 3/ 4 1013.2R ACE BASIN NERRS NOT AVBL FORT PULASKI 2200 82 84 360/ 7/ 8 1015.0R SAPELO ISLAND 2200 80 CALM 1014.0R $$ ANZ835-935-AMZ111-154-330-350-352-354-370-450-454-472-042300- ...C-MAN AND BUOY OBSERVATIONS... STATION/POSITION TIME TEMP WIND PRES WAVE SWELL AIR SEA DIR/SP/G HT/PER HT/PER/DIR (UTC) (F) (DEG/KT/KT) (MB) (FT/S) (FT/S/D) BUOY 41004 2150 83 85 90/ 4/ 6 1013.9R 1/12 2/12 BUOY 41008 2150 84 86 80/ 2/ 4 1013.9R 1 FOLLY BEACH CMAN 2200 78 290/ 2/ 3 1014.5R CAPERS NEARSHORE 2108 83 140/ 6/ 10 1014.3R FRIPP NEARSHORE 2100 85 170/ 8/ 8 1013.9R STATION/POSITION TIME TEMP WIND PRES WAVE SWELL AIR SEA DIR/SP/G HT/PER HT/PER/DIR (UTC) (F) (DEG/KT/KT) (MB) (FT/S) (FT/S/D) 5E ST. MARYS GA 2121 87 N/A 1/13 FRYING PAN BUOY 2150 83 83 80/ 2/ 4 1014.7R 1/ 9 2/100/ 9 BUOY 41025 2150 83 85 20/ 8/ 8 1014.0R 1/ 4 2/110/12 CAPE LOOKOUT NC 2200 84 220/ 3/ 4 1013.6R BUOY 41002 2150 83 85 10/ 6/ 10 1012.8F 1/11 2/ 30/11 BUOY 41010 2120 83 86 360/ 6/ 8 1013.4F ST AUGUSTINE FL 2200 83 86 110/ 8/ 8 1014.6R $$

USA.gov is the U.S. government's official web portal to all federal, state and local government web resources and services.